SB KEPS @ AMSAT $ORB26248.1 2Line Orbital Elements 26248.AMSAT QST de W1STR AMSAT Orbital Elements for Amateur Satellites in TLE Format From Orbital Analysis Office New England Sci-Tech STEM Education Center Natick MA September 05, 2026 To all radio amateurs These element sets describe the orbits of various satellites in use by the amateur radio community. For details see: www.amsat.org/keplerian-elements-formats/ A daily update of element sets is available at: www.amsat.org/tle/daily-bulletin.txt or without bulletin text: www.amsat.org/tle/dailytle.txt AO-07 1 07530U 74089B 26247.87413375 -.00000047 00000-0 -10054-5 0 9990 2 07530 101.9921 261.9541 0012134 340.9417 140.1978 12.53699385370503 UO-11 1 14781U 84021B 26247.61957244 .00000696 00000-0 76088-4 0 9999 2 14781 97.8150 212.3529 0006044 285.4269 74.6282 14.90968216268963 LO-19 1 20442U 90005G 26247.85719566 .00000021 00000-0 24405-4 0 9996 2 20442 98.8832 271.8499 0011053 337.6619 22.4082 14.34141783913813 AO-27 1 22825U 93061C 26247.43284105 .00000025 00000-0 26368-4 0 9992 2 22825 98.6811 314.7904 0007619 221.9481 138.1118 14.30959236718339 FO-29 1 24278U 96046B 26247.78871568 -.00000035 00000-0 27571-5 0 9995 2 24278 98.5179 85.7487 0348880 249.8087 106.5216 13.53277604483938 GO-32 1 25397U 98043D 26247.71956049 .00000021 00000-0 29389-4 0 9990 2 25397 99.0142 242.5099 0001542 31.9632 328.1639 14.24441238462658 ISS 1 25544U 98067A 26247.78883466 .00003383 00000-0 69578-4 0 9997 2 25544 51.6313 266.1160 0005046 107.1671 252.9870 15.48989366584099 NO-44 1 26931U 01043C 26247.85219060 .00000041 00000-0 46187-4 0 9996 2 26931 67.0511 38.2153 0005691 271.3451 88.6999 14.31980742301854 SO-50 1 27607U 02058C 26247.45171561 .00000498 00000-0 76553-4 0 9999 2 27607 64.5503 243.7133 0072586 247.9077 111.4311 14.83193270276212 CO-55 1 27844U 03031E 26247.48640235 .00000142 00000-0 80385-4 0 9990 2 27844 98.6770 255.0598 0008765 321.2746 38.7804 14.24376449202962 RS-22 1 27939U 03042A 26247.87308672 .00000399 00000-0 69500-4 0 9996 2 27939 98.3491 74.5039 0011834 21.8360 85.0065 14.73586674227287 CO-65 1 32785U 08021C 26247.78005814 .00002805 00000-0 17623-3 0 9997 2 32785 97.8361 230.9279 0010257 113.3722 246.8587 15.10086479997205 CO-66 1 32791U 08021J 26247.45545780 .00011934 00000-0 35108-3 0 9990 2 32791 97.7569 249.3099 0004082 61.8539 298.3115 15.35243240999442 RS-30 1 32953U 08025A 26247.85227105 -.00000016 00000-0 -18515-3 0 9990 2 32953 82.5041 305.8954 0020514 135.8907 224.3814 12.43182469829590 SRMSAT 1 37841U 11058D 26247.55170970 .00000352 00000-0 47043-4 0 9995 2 37841 19.9722 299.0883 0011805 358.2365 152.2976 14.11590334769040 ZACUBE-1 1 39417U 13066B 26247.84839163 .00003527 00000-0 27127-3 0 9992 2 39417 97.8094 210.5792 0040925 346.7483 13.2662 15.01720866692681 Delfi-N3xt 1 39428U 13066N 26247.73163102 .00004452 00000-0 38261-3 0 9994 2 39428 97.8289 167.9971 0071455 302.9174 56.5187 14.95988359686518 GOMX-1 1 39430U 13066Q 26247.78137572 .00001260 00000-0 19431-3 0 9996 2 39430 97.6449 83.2279 0127886 181.0528 179.0430 14.69664879681603 LO-74 1 39440U 13066AA 26247.83044576 .00001421 00000-0 13386-3 0 9996 2 39440 97.8965 197.1975 0058330 122.1723 238.5173 14.94214617688888 AO-73 1 39444U 13066AE 26247.37906640 .00003952 00000-0 24119-3 0 9995 2 39444 97.8364 220.5694 0033675 295.6273 64.1478 15.10477011691619 DTUSAT-2 1 40030U 14033W 26247.73436154 .00003579 00000-0 19068-3 0 9993 2 40030 98.0920 250.5884 0006831 336.1119 23.9794 15.15916612664738 LILACSAT-2 1 40908U 15049K 26247.86205384 .00011232 00000-0 17544-3 0 9990 2 40908 97.4582 287.8445 0005205 335.6289 24.4717 15.53968110608114 Lapan A3 1 41603U 16040E 26247.87333745 .00001826 00000-0 58533-4 0 9991 2 41603 97.1558 241.4523 0012146 89.9331 270.3304 15.33543242567020 CAS-2T 1 41847U 16066G 26247.46727223 .00000396 00000-0 65653-4 0 9994 2 41847 98.3765 322.2937 0340103 248.9056 107.5465 14.44825452516242 TechnoSat 1 42829U 17042E 26247.36041163 .00001706 00000-0 12287-3 0 9991 2 42829 97.4393 42.0759 0017504 177.8518 182.2787 15.05353571498611 AO-91 1 43017U 17073E 26247.89020917 .00004897 00000-0 20898-3 0 9998 2 43017 97.4583 113.4784 0149155 53.5724 307.9153 15.13765391477447 S-Net D 1 43186U 18014G 26247.68143394 .00002918 00000-0 14970-3 0 9999 2 43186 97.5260 151.9718 0009844 100.3246 259.9097 15.17303585470815 S-Net B 1 43187U 18014H 26247.69449884 .00002686 00000-0 13816-3 0 9994 2 43187 97.5267 151.9734 0010494 96.5655 263.6773 15.17271302470818 S-Net A 1 43188U 18014J 26247.67987821 .00002820 00000-0 14471-3 0 9999 2 43188 97.5277 152.1833 0010402 97.2589 262.9827 15.17311800470816 S-Net C 1 43189U 18014K 26247.69885847 .00002618 00000-0 13475-3 0 9995 2 43189 97.5294 152.2891 0011737 91.1015 269.1563 15.17261040469364 Ten-Koh 1 43677U 18084G 26247.80934786 .00001106 00000-0 86638-4 0 9997 2 43677 98.0756 83.5397 0008754 202.1059 157.9788 15.03218692428121 PO-101 1 43678U 18084H 26247.85420946 .00000952 00000-0 80318-4 0 9998 2 43678 98.1192 87.5698 0010863 262.9029 97.0959 15.00701697428167 QO-100 1 43700U 18090A 26247.81919744 .00000136 00000-0 00000+0 0 9995 2 43700 0.0113 207.2931 0002479 353.6523 103.6972 1.00269676 28470 MinXSS-2 1 43758U 18099A 26247.45250557 .00032155 00000-0 52552-3 0 9996 2 43758 97.4453 326.3537 0005279 336.9436 23.1579 15.52474150426404 AO-95 1 43770U 18099N 26247.14734666 .00006788 00000-0 24919-3 0 9993 2 43770 97.4306 307.1549 0009825 73.5305 286.7014 15.28227299425273 SNUSat 2 1 43782U 18099AA 26247.60143811 .00004230 00000-0 18313-3 0 9994 2 43782 97.3987 299.7922 0010476 26.5966 333.5806 15.22913766425114 SnugLite 1 43784U 18099AC 26247.38492963 .00005882 00000-0 21360-3 0 9996 2 43784 97.3795 300.9392 0003283 41.3421 318.8067 15.28677778425412 ITASat 1 1 43786U 18099AE 26247.11143000 .00003828 00000-0 18092-3 0 9990 2 43786 97.3956 297.0639 0013916 79.1929 281.0872 15.19915435424890 EAGLET 1 1 43790U 18099AJ 26247.60350030 .00002182 00000-0 12543-3 0 9999 2 43790 97.4161 295.1645 0012608 74.1922 286.0699 15.13451139424347 ESEO 1 43792U 18099AL 26247.86620251 .00000265 00000-0 23079-4 0 9991 2 43792 97.3913 281.8299 0013441 64.6447 295.6170 15.04440808423780 JO-97 1 43803U 18099AX 26246.72149691 .00011876 00000-0 34094-3 0 9990 2 43803 97.4046 309.9287 0004940 7.3493 352.7822 15.35992618425673 Suomi 100 1 43804U 18099AY 26247.44511311 .00007395 00000-0 25623-3 0 9992 2 43804 97.4107 307.6052 0009412 9.2590 350.8822 15.30094483425537 ISAT 1 43879U 18111D 26246.78352384 .00244986 00000-0 88785-3 0 9995 2 43879 97.5798 189.1593 0007033 114.4887 245.7119 15.87922249423535 UWE-4 1 43880U 18111E 26247.24582060 .00028782 00000-0 49602-3 0 9994 2 43880 97.5812 179.5585 0008850 53.7298 306.4769 15.50978455423016 Prox-1 1 44339U 19036A 26247.80584812 .00007106 00000-0 65131-3 0 9992 2 44339 23.9953 301.6865 0004954 234.1186 125.8854 14.92284240385377 Taurus 1 1 44530U 19059C 26247.81625635 .00003234 00000-0 51418-3 0 9991 2 44530 98.6496 57.6681 0009321 65.8261 294.3918 14.72809403370369 TO-108 1 44881U 19093C 26247.80726404 .00000042 00000-0 10783-4 0 9998 2 44881 97.7461 318.0751 0013346 178.9320 181.1927 14.86619495363243 RS-44 1 44909U 19096E 26247.12270283 .00000006 00000-0 -14150-4 0 9999 2 44909 82.5189 287.2592 0216719 320.0508 38.4816 12.79749119312444 SALSAT 1 46495U 20068K 26247.46102648 .00004504 00000-0 15402-3 0 9994 2 46495 97.8892 255.4274 0010305 34.0078 326.1820 15.30796995327483 CSS (TIANHE-1) 1 48274U 21035A 26247.85217593 .00011774 00000-0 14771-3 0 9990 2 48274 41.4676 198.3768 0002257 257.8869 102.1717 15.59580880305600 TeikyoSat 4 1 49396U 21102B 26247.32927444 .00000806 00000-0 53646-4 0 9995 2 49396 97.3641 273.7333 0012674 28.0107 332.1803 15.09744563264667 Z-Sat 1 49399U 21102E 26247.86489550 .00001081 00000-0 55018-4 0 9999 2 49399 97.3285 280.7756 0015526 335.0933 24.9550 15.18792203265534 KOSEN 1 1 49402U 21102H 26247.67684817 .00003944 00000-0 14763-3 0 9997 2 49402 97.3127 288.3169 0011523 287.9160 72.0823 15.27823766266151 HO-113 1 50466U 21131B 26247.88487497 .00000097 00000-0 43516-4 0 9994 2 50466 98.4968 339.8419 0003494 203.7271 156.3757 14.41417804246590 SNUGLITE 2 1 52899U 22065F 26247.35927713 .00000516 00000-0 10665-3 0 9999 2 52899 98.2315 32.1053 0008449 129.7158 230.4790 14.64470248222589 UmKA 1 (RS40S) 1 57172U 23091G 26247.81752345 .00002788 00000-0 12654-3 0 9999 2 57172 97.4974 306.2190 0012098 194.1422 165.9477 15.21586453176113 CubeBel-2 (EU11S) 1 57175U 23091K 26247.83993523 .00007190 00000-0 24325-3 0 9999 2 57175 97.4973 311.8372 0009327 183.2459 176.8723 15.30886506176486 RS-38S 1 57189U 23091Z 26247.82465338 .00010419 00000-0 27770-3 0 9996 2 57189 97.5019 319.0110 0007909 138.1536 222.0314 15.38328342176928 SONATE-2 1 59112U 24043Q 26247.39762554 .00037334 00000-0 38219-3 0 9999 2 59112 97.5610 43.0681 0005063 265.5553 94.5128 15.64903119140255 GRBBeta 1 60237U 24128C 26247.84902144 .00001226 00000-0 95027-4 0 9996 2 60237 61.9898 296.6675 0029102 152.1233 208.1427 15.07126156118270 Curium One 1 60242U 24128H 26247.80636247 .00002933 00000-0 17418-3 0 9999 2 60242 61.9779 283.5537 0028137 146.6702 213.6173 15.13520638118507 ROBUSTA-3A 1 60243U 24128J 26247.81728808 .00002532 00000-0 15569-3 0 9996 2 60243 61.9860 286.4380 0030047 143.8851 216.4282 15.12633765118466 CatSat 1 60246U 24125J 26247.86671532 .00067396 00000-0 56330-3 0 9992 2 60246 97.1985 101.9901 0014672 236.0216 123.9653 15.69679444119847 AO-123 1 61781U 24199AY 26247.82868686 .00004327 00000-0 12255-3 0 9995 2 61781 97.2872 115.7879 0014278 29.7005 330.5047 15.36713794146158 LASARsat 1 62391U 24247Q 26247.17999666 .00029551 00000-0 49584-3 0 9999 2 62391 44.9718 176.6965 0007695 130.3687 229.7877 15.51300458 95560 CroCube 1 62394U 24247T 26247.83298898 .00034128 00000-0 51644-3 0 9990 2 62394 44.9693 168.7639 0008306 146.2854 213.8569 15.54096712 95714 JINJUSat 1B 1 63210U 25052A 26247.17191552 .00010865 00000-0 31429-3 0 9990 2 63210 97.3879 144.1169 0004315 132.6276 227.5332 15.35782732 82213 NUSHSAT 1 1 63211U 25052B 26247.46308647 .00014291 00000-0 37322-3 0 9993 2 63211 97.3855 145.2832 0004031 131.0558 229.1036 15.38892459 82320 TEVEL2-4 1 63213U 25052D 26246.94808636 .00012834 00000-0 35440-3 0 9990 2 63213 97.3775 143.5693 0003253 139.2354 220.9134 15.37194006 82205 TEVEL2-5 1 63214U 25052E 26247.43425968 .00011768 00000-0 32736-3 0 9999 2 63214 97.3773 143.9804 0003099 140.3764 219.7707 15.36988201 82274 TEVEL2-6 1 63215U 25052F 26246.66710380 .00012994 00000-0 36177-3 0 9994 2 63215 97.3777 143.1954 0002995 142.8392 217.3060 15.36937348 82154 TEVEL2-1 1 63217U 25052H 26247.44224453 .00011443 00000-0 32523-3 0 9993 2 63217 97.3749 143.4974 0002724 152.2275 207.9115 15.36325396 82256 TEVEL2-3 1 63218U 25052J 26246.65196617 .00012403 00000-0 35166-3 0 9999 2 63218 97.3754 142.7390 0002339 150.0265 210.1113 15.36381770 82133 TEVEL2-2 1 63219U 25052K 26247.18142587 .00012236 00000-0 34748-3 0 9995 2 63219 97.3750 143.2401 0002737 154.6183 205.5196 15.36333945 82219 TEVEL2-9 1 63237U 25052AD 26246.93982935 .00010551 00000-0 32156-3 0 9995 2 63237 97.3810 142.1909 0004780 200.9355 159.1692 15.34138426 82099 TEVEL2-7 1 63238U 25052AE 26247.64977951 .00009774 00000-0 30128-3 0 9999 2 63238 97.3813 142.7795 0004794 198.9553 161.1512 15.33797436 82199 TEVEL2-8 1 63239U 25052AF 26247.65871625 .00009999 00000-0 30827-3 0 9997 2 63239 97.3814 142.7634 0004847 199.7899 160.3156 15.33787364 82198 SPIRONE 1 66657U 25274H 26246.76713741 .00001167 00000-0 11519-3 0 9991 2 66657 97.7473 174.9457 0013491 109.7032 250.5645 14.93810836 41955 K-HERO 1 66660U 25274L 26247.55402642 .00001387 00000-0 13453-3 0 9991 2 66660 97.7480 175.9401 0015360 111.7096 248.5761 14.94208572 42087 SNUGLITE-III DURI 1 66661U 25274M 26247.74140367 .00001076 00000-0 10547-3 0 9992 2 66661 97.7479 176.1456 0015919 112.3223 247.9686 14.94217898 42112 SAKHACUBE-CHOLBON 1 67290U 25313AU 26247.13398499 .00006109 00000-0 23889-3 0 9994 2 67290 97.3867 321.2271 0010479 80.5327 279.7095 15.26163933 38010 RS95S (QMR-KWT-2) 1 67291U 25313AV 26247.49284076 .00008903 00000-0 32652-3 0 9991 2 67291 97.3865 321.9571 0009869 77.8393 282.3952 15.28163368 38096 Ten-Koh2 1 68261U 25241B 26246.55793044 .00003260 00000-0 14321-3 0 9999 2 68261 51.6654 306.3832 0007556 42.6075 317.5489 15.24773493 26868 JACK-002 1 68417U 26067B 26246.83887093 .00004554 00000-0 21309-3 0 9999 2 68417 97.4645 204.5366 0002916 46.0726 314.0749 15.20245705 23893 DISCO 2 1 68431U 26067R 26247.33206549 .00004506 00000-0 21159-3 0 9992 2 68431 97.4675 205.0224 0004181 83.5664 276.6047 15.20127753 23968 HADES-SA (SpinnyONE) 1 68446U 26067AG 26247.59761519 .00010973 00000-0 48973-3 0 9997 2 68446 97.4466 204.8751 0007831 140.4162 219.7647 15.21522429 23992 PARUS-6U1 1 68456U 26067AS 26247.82312169 .00003253 00000-0 16214-3 0 9993 2 68456 97.4628 205.0356 0006733 133.2844 226.8953 15.18241903 24018 SAL-E 1 68458U 26067AU 26247.60073014 .00004029 00000-0 19708-3 0 9997 2 68458 97.4553 204.7193 0006749 140.9970 219.1752 15.18761031 23980 FSI-SAT 2 1 68792U 26088A 26247.82557690 .00002982 00000-0 20085-3 0 9998 2 68792 97.5175 35.1676 0014019 190.0933 170.0016 15.07371559 20286 OrigamiSat 2 1 68795U 26088D 26247.37546965 .00008113 00000-0 49736-3 0 9990 2 68795 97.5164 35.1522 0015080 163.1863 196.9870 15.10320518 20243 ARICA 2 1 68796U 26088E 26247.35220448 .00002805 00000-0 18110-3 0 9998 2 68796 97.5172 35.0151 0015933 162.2666 197.9123 15.08969728 20238 WASEDA-SAT-ZERO-II 1 68797U 26088F 26247.86097455 .00002916 00000-0 18582-3 0 9991 2 68797 97.5164 35.5581 0015780 159.8379 200.3477 15.09414216 20313 MANGARO-II-Piscus 1 68798U 26088G 26247.38752027 .00001811 00000-0 11725-3 0 9997 2 68798 97.5176 35.1349 0019216 165.3310 194.8481 15.09264589 20240 CO-128 1 69912U 26156AV 26246.66669709 .00000988 00000-0 10570-3 0 9997 2 69912 97.7491 146.0817 0001767 347.2576 12.8597 14.90918405 8694 MARINA 1 69920U 26156BD 26246.95610418 .00001332 00000-0 13645-3 0 9991 2 69920 97.7458 146.4496 0006685 331.7450 28.3405 14.92128142 8745 IO-86 1 40931U 26199.45381863 .00000000 00000-0 77536-4 0 07 2 40931 6.0006 322.6653 0012733 338.8432 273.6875 14.79294310 03 LILIUM-4 1 71922C 26067AC 26089.50133053 -.00014632 00000+0 -74472-3 0 04 2 71922 97.4497 49.1617 0004341 5.9603 355.7042 15.16896692 16 /EX